Location: Ar Ranvel
(48.3000°N, 4.8833°W)
Time: 03:48:19
(UTC+00:00)

SPOT 1/Viking Rocket - Visible Passes

Search period start: 18 October 2021 00:00
Search period end: 28 October 2021 00:00
Orbit: 776 x 794 km, 98.4° (Epoch: 17 October)

Date Brightness Start Highest point End Pass type
(mag) Time Alt. Az. Time Alt. Az. Time Alt. Az.
18 Oct 5.5 20:26:40 18° N 20:26:40 18° N 20:28:10 10° N visible
18 Oct 6.5 22:07:18 11° NNW 22:07:18 11° NNW 22:07:34 10° NNW visible
19 Oct 5.6 19:55:33 15° NNE 19:55:33 15° NNE 19:56:46 10° N visible
19 Oct 6.1 21:36:11 15° NNW 21:36:11 15° NNW 21:36:59 10° NNW visible
20 Oct 5.7 19:24:26 11° NNE 19:24:26 11° NNE 19:24:47 10° NNE visible
20 Oct 5.9 21:05:04 16° N 21:05:04 16° N 21:06:08 10° N visible
21 Oct 5.7 20:33:56 16° N 20:33:56 16° N 20:35:03 10° N visible
22 Oct 5.7 20:02:49 14° NNE 20:02:49 14° NNE 20:03:44 10° N visible
22 Oct 6.4 21:43:27 12° NNW 21:43:27 12° NNW 21:43:46 10° NNW visible
23 Oct 5.8 19:31:41 11° NNE 19:31:41 11° NNE 19:31:58 10° NNE visible
23 Oct 6.1 21:12:19 14° NNW 21:12:19 14° NNW 21:12:58 10° NNW visible
24 Oct 5.9 20:41:12 14° N 20:41:12 14° N 20:41:57 10° N visible
25 Oct 5.8 20:10:05 13° N 20:10:05 13° N 20:10:41 10° N visible
26 Oct 5.9 19:38:56 10° NNE 19:38:56 10° NNE 19:39:03 10° NNE visible
26 Oct 6.3 21:19:34 11° NNW 21:19:34 11° NNW 21:19:48 10° NNW visible
27 Oct 6.1 20:48:26 12° N 20:48:26 12° N 20:48:49 10° N visible
